Location: Unspecified
(0.0000°N, 0.0000°E)
Time: 00:26:11
(UTC+00:00)

KAITUO 1B - Pass Details

Date: 24 July 2019
Orbit: 497 x 516 km, 97.4° (Epoch: 17 August)

Event Time Altitude Azimuth Distance (km) Brightness Sun altitude
Rises 18:26:55 0° 188° (S) 2,600 ? -4.8°
Reaches altitude 10° 18:29:14 10° 201° (SSW) 1,710 ? -5.3°
Maximum altitude 18:32:21 26° 259° (WSW) 1,010 ? -6.1°
Drops below altitude 10° 18:35:26 10° 317° (NW) 1,695 ? -6.8°
Sets 18:37:44 0° 330° (NNW) 2,572 ? -7.3°
